• în Republica Moldova
  • Lista ţărilor
  • Pe 7 zile
  • Temperatura apei
  • Hartă satelitară
  • Meteo pe hartă
  • Widget-uri
  • user-avatar
    Intrare

    Meteo pe oră la Melbourne

    Astăzi, 18 Ianuarie, Miercuri

    Timp Temperatura Precipitaţii Vânt Presiune Umiditate
    00:00 +20°C° 0 mm 2 m/s 755 mmHg 76%
    01:00 +20°C° 0 mm 1 m/s 756 mmHg 81%
    02:00 +19°C° 0,1 mm 2 m/s 755 mmHg 84%
    03:00 +18°C° 0,1 mm 2 m/s 755 mmHg 86%
    04:00 +18°C° 0 mm 4 m/s 755 mmHg 87%
    05:00 +18°C° 0,1 mm 4 m/s 756 mmHg 85%
    06:00 +17°C° 0,1 mm 4 m/s 756 mmHg 84%
    07:00 +17°C° 0,1 mm 4 m/s 757 mmHg 83%
    08:00 +18°C° 0 mm 4 m/s 758 mmHg 75%
    09:00 +18°C° 0 mm 4 m/s 758 mmHg 66%
    10:00 +20°C° 0 mm 5 m/s 759 mmHg 56%
    11:00 +20°C° 0 mm 5 m/s 759 mmHg 53%
    12:00 +20°C° 0 mm 4 m/s 759 mmHg 50%
    13:00 +21°C° 0 mm 4 m/s 759 mmHg 48%
    14:00 +21°C° 0 mm 4 m/s 759 mmHg 47%
    15:00 +21°C° 0 mm 4 m/s 759 mmHg 46%
    16:00 +20°C° 0 mm 5 m/s 759 mmHg 47%
    17:00 +20°C° 0 mm 4 m/s 760 mmHg 51%
    18:00 +19°C° 0 mm 4 m/s 760 mmHg 54%
    19:00 +18°C° 0 mm 4 m/s 760 mmHg 58%
    20:00 +16°C° 0 mm 3 m/s 760 mmHg 64%
    21:00 +14°C° 0 mm 3 m/s 761 mmHg 69%
    22:00 +13°C° 0 mm 3 m/s 761 mmHg 74%
    23:00 +12°C° 0 mm 3 m/s 761 mmHg 77%

    Mâine, 19 Ianuarie, Joi

    Timp Temperatura Precipitaţii Vânt Presiune Umiditate
    00:00 +13°C° 0 mm 2 m/s 760 mmHg 79%
    01:00 +12°C° 0 mm 2 m/s 760 mmHg 81%
    02:00 +12°C° 0 mm 2 m/s 760 mmHg 83%
    03:00 +12°C° 0 mm 2 m/s 760 mmHg 85%
    04:00 +10°C° 0 mm 2 m/s 759 mmHg 87%
    05:00 +12°C° 0 mm 2 m/s 759 mmHg 82%
    06:00 +13°C° 0 mm 2 m/s 759 mmHg 78%
    07:00 +14°C° 0 mm 2 m/s 759 mmHg 74%
    08:00 +16°C° 0 mm 2 m/s 759 mmHg 62%
    09:00 +20°C° 0 mm 1 m/s 759 mmHg 51%
    10:00 +22°C° 0 mm 1 m/s 758 mmHg 39%
    11:00 +24°C° 0 mm 1 m/s 757 mmHg 34%
    12:00 +26°C° 0 mm 1 m/s 757 mmHg 29%
    13:00 +28°C° 0 mm 1 m/s 756 mmHg 24%
    14:00 +29°C° 0 mm 2 m/s 755 mmHg 24%
    15:00 +29°C° 0 mm 2 m/s 754 mmHg 24%
    16:00 +29°C° 0 mm 2 m/s 753 mmHg 25%
    17:00 +27°C° 0 mm 2 m/s 753 mmHg 32%
    18:00 +25°C° 0 mm 2 m/s 753 mmHg 39%
    19:00 +23°C° 0 mm 2 m/s 753 mmHg 46%
    20:00 +21°C° 0 mm 2 m/s 752 mmHg 53%
    21:00 +20°C° 0 mm 1 m/s 752 mmHg 61%
    22:00 +17°C° 0 mm 0 m/s 752 mmHg 68%
    23:00 +19°C° 0 mm 1 m/s 751 mmHg 63%

    Poimâine, 20 Ianuarie, Vineri

    Timp Temperatura Precipitaţii Vânt Presiune Umiditate
    00:00 +20°C° 0 mm 1 m/s 749 mmHg 59%
    01:00 +19°C° 0 mm 2 m/s 748 mmHg 55%
    02:00 +19°C° 2 mm 2 m/s 748 mmHg 67%
    03:00 +18°C° 2 mm 2 m/s 748 mmHg 79%
    04:00 +17°C° 2 mm 2 m/s 748 mmHg 91%
    05:00 +18°C° 0,7 mm 1 m/s 748 mmHg 92%
    06:00 +18°C° 0,7 mm 1 m/s 748 mmHg 94%
    07:00 +18°C° 0,7 mm 1 m/s 748 mmHg 95%
    08:00 +19°C° 0,2 mm 1 m/s 748 mmHg 92%
    09:00 +19°C° 0,2 mm 1 m/s 748 mmHg 89%
    10:00 +19°C° 0,2 mm 2 m/s 749 mmHg 86%
    11:00 +20°C° 0,1 mm 3 m/s 749 mmHg 81%
    12:00 +20°C° 0,1 mm 4 m/s 749 mmHg 75%
    13:00 +21°C° 0,1 mm 5 m/s 750 mmHg 70%
    14:00 +21°C° 0 mm 5 m/s 750 mmHg 65%
    15:00 +21°C° 0 mm 5 m/s 750 mmHg 61%
    16:00 +21°C° 0 mm 4 m/s 750 mmHg 57%
    17:00 +20°C° 0 mm 4 m/s 751 mmHg 60%
    18:00 +19°C° 0 mm 4 m/s 752 mmHg 63%
    19:00 +18°C° 0 mm 4 m/s 753 mmHg 66%
    20:00 +17°C° 0 mm 4 m/s 754 mmHg 71%
    21:00 +16°C° 0 mm 3 m/s 755 mmHg 76%
    22:00 +14°C° 0 mm 3 m/s 756 mmHg 81%
    23:00 +14°C° 0 mm 3 m/s 756 mmHg 82%

    21 Ianuarie, Sâmbătă

    Timp Temperatura Precipitaţii Vânt Presiune Umiditate
    00:00 +14°C° 0 mm 3 m/s 756 mmHg 83%
    01:00 +14°C° 0 mm 2 m/s 756 mmHg 84%
    02:00 +14°C° 0 mm 2 m/s 756 mmHg 85%
    03:00 +14°C° 0 mm 2 m/s 756 mmHg 85%
    04:00 +14°C° 0 mm 2 m/s 757 mmHg 86%
    05:00 +14°C° 0 mm 2 m/s 757 mmHg 83%
    06:00 +15°C° 0 mm 2 m/s 758 mmHg 80%
    07:00 +15°C° 0 mm 2 m/s 758 mmHg 77%
    08:00 +17°C° 0 mm 2 m/s 759 mmHg 69%
    09:00 +18°C° 0 mm 2 m/s 759 mmHg 62%
    10:00 +20°C° 0 mm 2 m/s 759 mmHg 54%
    11:00 +21°C° 0 mm 2 m/s 759 mmHg 50%
    12:00 +22°C° 0 mm 3 m/s 759 mmHg 46%
    13:00 +24°C° 0 mm 3 m/s 759 mmHg 43%
    14:00 +24°C° 0 mm 3 m/s 759 mmHg 43%
    15:00 +25°C° 0 mm 3 m/s 759 mmHg 43%
    16:00 +25°C° 0 mm 3 m/s 758 mmHg 44%
    17:00 +22°C° 0 mm 3 m/s 759 mmHg 49%
    18:00 +21°C° 0 mm 3 m/s 759 mmHg 55%
    19:00 +19°C° 0 mm 3 m/s 760 mmHg 60%
    20:00 +18°C° 0 mm 2 m/s 760 mmHg 68%
    21:00 +17°C° 0 mm 2 m/s 761 mmHg 76%
    22:00 +15°C° 0 mm 2 m/s 761 mmHg 84%
    23:00 +14°C° 0 mm 2 m/s 761 mmHg 87%

    22 Ianuarie, Duminică

    Timp Temperatura Precipitaţii Vânt Presiune Umiditate
    00:00 +14°C° 0 mm 1 m/s 761 mmHg 91%
    01:00 +13°C° 0 mm 1 m/s 760 mmHg 94%
    02:00 +13°C° 0 mm 1 m/s 760 mmHg 95%
    03:00 +13°C° 0 mm 1 m/s 760 mmHg 95%
    04:00 +12°C° 0 mm 1 m/s 760 mmHg 95%
    05:00 +14°C° 0 mm 1 m/s 760 mmHg 89%
    06:00 +15°C° 0 mm 1 m/s 760 mmHg 83%
    07:00 +16°C° 0 mm 1 m/s 761 mmHg 77%
    08:00 +20°C° 0 mm 1 m/s 760 mmHg 65%
    09:00 +23°C° 0 mm 1 m/s 760 mmHg 52%
    10:00 +27°C° 0 mm 1 m/s 760 mmHg 40%
    11:00 +29°C° 0 mm 1 m/s 760 mmHg 36%
    12:00 +31°C° 0 mm 1 m/s 759 mmHg 32%
    13:00 +33°C° 0 mm 1 m/s 758 mmHg 28%
    14:00 +34°C° 0 mm 2 m/s 758 mmHg 28%
    15:00 +34°C° 0 mm 2 m/s 758 mmHg 28%
    16:00 +34°C° 0 mm 2 m/s 757 mmHg 29%
    17:00 +31°C° 0 mm 2 m/s 757 mmHg 37%
    18:00 +28°C° 0 mm 2 m/s 757 mmHg 45%
    19:00 +26°C° 0 mm 2 m/s 757 mmHg 52%
    20:00 +24°C° 0 mm 2 m/s 757 mmHg 59%
    21:00 +22°C° 0 mm 1 m/s 757 mmHg 66%
    22:00 +21°C° 0 mm 1 m/s 757 mmHg 72%
    23:00 +20°C° 0 mm 1 m/s 757 mmHg 73%

    23 Ianuarie, Luni

    Timp Temperatura Precipitaţii Vânt Presiune Umiditate
    00:00 +20°C° 0 mm 1 m/s 756 mmHg 73%
    01:00 +20°C° 0 mm 1 m/s 756 mmHg 74%
    02:00 +20°C° 0 mm 1 m/s 755 mmHg 69%
    03:00 +21°C° 0 mm 1 m/s 755 mmHg 65%
    04:00 +22°C° 0 mm 1 m/s 755 mmHg 60%
    05:00 +23°C° 0 mm 1 m/s 755 mmHg 57%
    06:00 +24°C° 0 mm 1 m/s 755 mmHg 55%
    07:00 +24°C° 0 mm 1 m/s 755 mmHg 52%
    08:00 +24°C° 0,1 mm 1 m/s 755 mmHg 55%
    09:00 +25°C° 0,1 mm 1 m/s 755 mmHg 59%
    10:00 +25°C° 0,1 mm 1 m/s 755 mmHg 62%
    11:00 +25°C° 0,2 mm 2 m/s 754 mmHg 64%
    12:00 +26°C° 0,2 mm 2 m/s 754 mmHg 66%
    13:00 +26°C° 0,2 mm 3 m/s 753 mmHg 68%
    14:00 +27°C° 0,3 mm 2 m/s 753 mmHg 70%
    15:00 +27°C° 0,3 mm 2 m/s 752 mmHg 72%
    16:00 +27°C° 0,3 mm 1 m/s 751 mmHg 75%
    17:00 +26°C° 0,1 mm 1 m/s 751 mmHg 78%
    18:00 +25°C° 0,1 mm 1 m/s 751 mmHg 82%
    19:00 +24°C° 0,1 mm 1 m/s 751 mmHg 85%
    20:00 +24°C° 0 mm 1 m/s 751 mmHg 84%
    21:00 +24°C° 0 mm 1 m/s 751 mmHg 83%
    22:00 +22°C° 0 mm 0 m/s 751 mmHg 81%
    23:00 +24°C° 0,5 mm 1 m/s 751 mmHg 83%
    Arată mai mult